This is the latest recevied weather packets stored in our database for station/object KD8TSA. If no packets are shown the sender has not sent any weather packets the latest 10 day(s).
| Time | Temp. | Humidity | Pressure | Rain* | Wind** | Luminosity | Snow |
|---|---|---|---|---|---|---|---|
| 1778288058 | 16.11° C | 65% | 1009.1 hPa | 0 mm | - | 0 W/m² | - |
| 1778287757 | 16.67° C | 64% | 1009.2 hPa | 0 mm | - | 0 W/m² | - |
| 1778287454 | 16.67° C | 63% | 1009.1 hPa | 0 mm | - | 0 W/m² | - |
| 1778287152 | 16.67° C | 61% | 1009.3 hPa | 0 mm | - | 0 W/m² | - |
| 1778286849 | 16.67° C | 60% | 1009.3 hPa | 0 mm | - | 0 W/m² | - |
| 1778286546 | 17.22° C | 61% | 1009.5 hPa | 0 mm | - | 0 W/m² | - |
| 1778286244 | 17.22° C | 59% | 1009.3 hPa | 0 mm | - | 0 W/m² | - |
| 1778285941 | 16.67° C | 60% | 1009.6 hPa | 0 mm | - | 0 W/m² | - |
| 1778285637 | 16.67° C | 62% | 1009.2 hPa | 0 mm | - | 0 W/m² | - |
| 1778285334 | 17.22° C | 62% | 1009.3 hPa | 0 mm | - | 1 W/m² | - |
| 1778285032 | 17.22° C | 59% | 1009.3 hPa | 0 mm | - | 2 W/m² | - |
| 1778284728 | 17.78° C | 57% | 1009.3 hPa | 0 mm | - | 3 W/m² | - |
| 1778284425 | 17.78° C | 57% | 1009.1 hPa | 0 mm | - | 4 W/m² | - |
| 1778284123 | 17.78° C | 56% | 1009.4 hPa | 0 mm | - | 6 W/m² | - |
| 1778283819 | 17.78° C | 56% | 1009.1 hPa | 0 mm | - | 7 W/m² | - |
| 1778283518 | 17.78° C | 55% | 1008.9 hPa | 0 mm | - | 7 W/m² | - |
| 1778283217 | 17.78° C | 55% | 1009.1 hPa | 0 mm | - | 6 W/m² | - |
| 1778282913 | 17.78° C | 55% | 1009 hPa | 0 mm | - | 13 W/m² | - |
| 1778282609 | 18.33° C | 56% | 1008.9 hPa | 0 mm | - | 37 W/m² | - |
| 1778282308 | 18.33° C | 54% | 1009 hPa | 0 mm | - | 35 W/m² | - |
| 1778282004 | 18.33° C | 54% | 1009 hPa | 0 mm | - | 29 W/m² | - |
| 1778281701 | 18.33° C | 55% | 1008.8 hPa | 0 mm | - | 31 W/m² | - |
| 1778281397 | 18.33° C | 55% | 1008.9 hPa | 0 mm | - | 43 W/m² | - |
| 1778281095 | 18.33° C | 54% | 1009 hPa | 0 mm | - | 48 W/m² | - |
| 1778280791 | 18.33° C | 55% | 1009 hPa | 0 mm | - | 42 W/m² | - |
* Rain latest hour (hover to see other rain measurements)
** Current wind speed in m/s (hover to see current wind gust speed)